STARLINK-35937, 66517

Orbit data source: Space-Track

STARLINK-35937, 66517 is a payload satellite owned by SpaceX/Seattle (US) in LEO that was launched on Wed, 19 Nov 2025 UTC via an FALCON 9 launch vehicle from the Air Force Eastern Test Range (AFETR). Payload-class satellites include a variety of spacecraft equipped with specific instruments for various scientific and technological missions. These include communications satellites like Starlink; space stations such as the ISS; scientific satellites like the Hubble; Earth observation satellites from companies like Planet Labs, Umbra, and HawkEye 360; GPS; miniature CubeSats for education and research; and military/defense satellites.

Loading next visibility...
Identifier
66517, 2025-265B
Orbit
LEO
Country
Flag of USUS
Related business
Manufacturer
SpaceX/Seattle
Mission
Operational Commercial Communications
Bus & Motor
STARLINK V2MO, Unknown motor
Mass
575 kg wet, ~530 kg dry
Launch date (UTC)
2025-11-19 (7 months ago)
Launch vehicle
FALCON 9
Launch site
Air Force Eastern Test Range (AFETR)
Object type
Payload
Rocket body
Debris
Shape & HBR
Box + 2 Pan, 17.7 m
Radar Cross Section
36.964 m², Large (>1 m²)

Expand to show TLE details & history
Last TLE update: 17 hours ago

TLE from 17 hours ago
0 STARLINK-35937
1 66517U 25265B   26171.11761048  .00008072  00000-0  30262-3 0  9993
2 66517  42.9985  59.9016 0000998 351.9978   8.0857 15.27572166 32771
Epoch: 2026-06-20T02:49Z
TLE epoch observation values (Epoch: 2026-06-20T02:49:21.545Z)
Latitude
-0.00006°
Longitude
109.22494°
Altitude
482.17 km
Speed
7.627 km/s
True Right ascension
03h 59m 36s
True Declination
0° 00' 00"
Sunlit
Object was in daylight at epoch
Visualization orbit readout
Latitude
Unknown
Longitude
Unknown
Altitude
Unknown
Speed
Unknown
Apparent Right ascension
Unknown
Apparent Declination
Unknown
Sunlit
N/A
Visualization observer readout
Local Sidereal Time
07:13:53
Azimuth
Unknown
Elevation
Unknown
Doppler factor
Unknown
Orbital elements
Apogee altitude
485.703 km
Perigee altitude
484.333 km
Semi-major axis
6,863.155 km
Eccentricity
0.0001
Inclination
42.9985°
RAAN
59.9016°
Arg. of periapsis
351.9978°
True anomaly
8.08731°
Mean anomaly
8.0857°
Eccentric anomaly
8.0865°
Mean motion
3.81731 °/min
Orbital period
94.31 mins
BSTAR
0.00030262
Loading maneuver chart data...
Computing Atmospheric mass density...
Loading historical data...
Loading historical data...
Loading historical data...
Loading historical data...
Loading historical data...
Loading historical data...
Loading historical data...

Documentation

Showing up to 5 results
|